Tracking 29059 objects as of 19-Jun-2024
HD Live streaming from Space Station
objects crossing your sky now

ONEWEB-0288

Track ONEWEB-0288 now!
10-day predictions
ONEWEB-0288 is classified as:


NORAD ID: 49078
Int'l Code: 2021-075D
Perigee: 1,219.4 km
Apogee: 1,222.3 km
Inclination: 87.9 °
Period: 109.7 minutes
Semi major axis: 7591 km
RCS: Unknown
Launch date: August 21, 2021
Source: United Kingdom (UK)
Launch site: TYURATAM MISSILE AND SPACE COMPLEX (TTMTR)
Your satellite tracking list
Your tracking list is empty




NASA's NSSDC Master Catalog

Two Line Element Set (TLE):
1 49078U 21075D   24170.87682581  .00000138  00000-0  34722-3 0  9995
2 49078  87.8935 135.6893 0001946  80.4518 279.6830 13.12444485139656
Source of the keplerian elements: AFSPC